Wetterdaten: Dienstag, 12.09.2017
Datum Zeit Temp. I. Temp. A. Boden 5 cm Feuchte A. Sonne Luftdruck Regen Wind Sonnenschein
12.09.2017 00:00 22,0 C 13,2 C 14,7 C 90 % 0 % 1010 hPa 0,0 l/m 0,0 km/h (0 Bft) 0 min
12.09.2017 00:02 22,0 C 13,2 C 14,7 C 90 % 0 % 1010 hPa 0,0 l/m 0,0 km/h (0 Bft) 0 min
12.09.2017 00:06 22,0 C 13,2 C 14,7 C 90 % 0 % 1010 hPa 0,0 l/m 0,0 km/h (0 Bft) 0 min
12.09.2017 00:09 22,0 C 13,2 C 14,7 C 90 % 0 % 1010 hPa 0,0 l/m 0,0 km/h (0 Bft) 0 min
12.09.2017 00:12 22,0 C 13,2 C 14,7 C 90 % 0 % 1010 hPa 0,0 l/m 0,0 km/h (0 Bft) 0 min
12.09.2017 00:14 22,0 C 13,2 C 14,7 C 90 % 0 % 1010 hPa 0,0 l/m 0,0 km/h (0 Bft) 0 min
12.09.2017 00:17 22,0 C 13,1 C 14,7 C 90 % 0 % 1010 hPa 0,0 l/m 0,0 km/h (0 Bft) 0 min
12.09.2017 00:21 22,0 C 13,1 C 14,7 C 90 % 0 % 1010 hPa 0,0 l/m 0,0 km/h (0 Bft) 0 min
12.09.2017 00:24 22,0 C 13,1 C 14,7 C 90 % 0 % 1010 hPa 0,0 l/m 0,0 km/h (0 Bft) 0 min
12.09.2017 00:27 22,0 C 13,0 C 14,7 C 90 % 0 % 1010 hPa 0,0 l/m 0,0 km/h (0 Bft) 0 min
12.09.2017 00:30 22,0 C 13,0 C 14,6 C 90 % 0 % 1010 hPa 0,0 l/m 0,0 km/h (0 Bft) 0 min
12.09.2017 00:32 22,0 C 13,0 C 14,7 C 90 % 0 % 1010 hPa 0,0 l/m 0,0 km/h (0 Bft) 0 min
12.09.2017 00:36 22,0 C 12,9 C 14,7 C 90 % 0 % 1010 hPa 0,0 l/m 0,0 km/h (0 Bft) 0 min
12.09.2017 00:39 22,0 C 12,8 C 14,4 C 90 % 0 % 1010 hPa 0,0 l/m 0,0 km/h (0 Bft) 0 min
12.09.2017 00:42 22,0 C 12,8 C 14,3 C 89 % 0 % 1010 hPa 0,0 l/m 0,0 km/h (0 Bft) 0 min
12.09.2017 00:45 22,0 C 12,8 C 14,5 C 89 % 0 % 1010 hPa 0,0 l/m 0,0 km/h (0 Bft) 0 min
12.09.2017 00:47 22,0 C 12,8 C 14,5 C 89 % 0 % 1010 hPa 0,0 l/m 0,0 km/h (0 Bft) 0 min
12.09.2017 00:50 22,0 C 12,8 C 14,4 C 89 % 0 % 1010 hPa 0,0 l/m 0,0 km/h (0 Bft) 0 min
12.09.2017 00:53 22,0 C 12,8 C 14,4 C 89 % 0 % 1010 hPa 0,0 l/m 0,3 km/h (0 Bft) 0 min
12.09.2017 00:56 22,0 C 12,8 C 14,3 C 89 % 0 % 1010 hPa 0,0 l/m 1,1 km/h (1 Bft) 0 min
12.09.2017 00:59 22,0 C 12,7 C 14,3 C 89 % 0 % 1010 hPa 0,0 l/m 3,3 km/h (1 Bft) 0 min
12.09.2017 01:02 22,0 C 12,6 C 14,3 C 88 % 0 % 1010 hPa 0,0 l/m 0,0 km/h (0 Bft) 0 min
12.09.2017 01:05 22,0 C 12,6 C 14,3 C 88 % 0 % 1010 hPa 0,0 l/m 0,1 km/h (0 Bft) 0 min
12.09.2017 01:08 22,0 C 12,6 C 14,3 C 88 % 0 % 1010 hPa 0,0 l/m 0,3 km/h (0 Bft) 0 min
12.09.2017 01:11 22,0 C 12,6 C 14,3 C 88 % 0 % 1010 hPa 0,0 l/m 0,0 km/h (0 Bft) 0 min
12.09.2017 01:14 22,0 C 12,5 C 14,2 C 88 % 0 % 1010 hPa 0,0 l/m 0,0 km/h (0 Bft) 0 min
12.09.2017 01:17 22,0 C 12,4 C 14,2 C 88 % 0 % 1010 hPa 0,0 l/m 0,0 km/h (0 Bft) 0 min
12.09.2017 01:21 22,0 C 12,4 C 14,1 C 88 % 0 % 1010 hPa 0,0 l/m 0,0 km/h (0 Bft) 0 min
12.09.2017 01:24 22,0 C 12,4 C 14,2 C 88 % 0 % 1010 hPa 0,0 l/m 0,1 km/h (0 Bft) 0 min
12.09.2017 01:27 22,0 C 12,4 C 14,2 C 88 % 0 % 1010 hPa 0,0 l/m 0,0 km/h (0 Bft) 0 min
12.09.2017 01:30 22,0 C 12,4 C 14,1 C 88 % 0 % 1010 hPa 0,0 l/m 0,1 km/h (0 Bft) 0 min
12.09.2017 01:32 22,0 C 12,4 C 14,1 C 88 % 0 % 1010 hPa 0,0 l/m 0,1 km/h (0 Bft) 0 min
12.09.2017 01:36 22,0 C 12,4 C 14,0 C 87 % 0 % 1010 hPa 0,0 l/m 0,1 km/h (0 Bft) 0 min
12.09.2017 01:39 22,0 C 12,4 C 14,1 C 87 % 0 % 1010 hPa 0,0 l/m 0,0 km/h (0 Bft) 0 min
12.09.2017 01:42 22,0 C 12,4 C 14,2 C 87 % 0 % 1011 hPa 0,0 l/m 0,0 km/h (0 Bft) 0 min
12.09.2017 01:45 22,0 C 12,3 C 14,2 C 86 % 0 % 1011 hPa 0,0 l/m 0,0 km/h (0 Bft) 0 min
12.09.2017 01:48 22,0 C 12,3 C 14,2 C 87 % 0 % 1011 hPa 0,0 l/m 0,0 km/h (0 Bft) 0 min
12.09.2017 01:51 22,0 C 12,4 C 14,0 C 88 % 0 % 1011 hPa 0,0 l/m 0,0 km/h (0 Bft) 0 min
12.09.2017 01:54 22,0 C 12,3 C 14,1 C 88 % 0 % 1010 hPa 0,0 l/m 0,0 km/h (0 Bft) 0 min
12.09.2017 01:56 21,9 C 12,3 C 14,1 C 88 % 0 % 1010 hPa 0,0 l/m 0,0 km/h (0 Bft) 0 min
12.09.2017 01:59 22,0 C 12,3 C 14,1 C 88 % 0 % 1010 hPa 0,0 l/m 0,0 km/h (0 Bft) 0 min
12.09.2017 02:02 22,0 C 12,3 C 14,1 C 88 % 0 % 1010 hPa 0,0 l/m 0,0 km/h (0 Bft) 0 min
12.09.2017 02:06 22,0 C 12,2 C 14,1 C 89 % 0 % 1010 hPa 0,0 l/m 0,0 km/h (0 Bft) 0 min
12.09.2017 02:09 22,0 C 12,2 C 14,1 C 89 % 0 % 1010 hPa 0,0 l/m 0,0 km/h (0 Bft) 0 min
12.09.2017 02:12 21,9 C 12,2 C 14,1 C 89 % 0 % 1010 hPa 0,0 l/m 0,0 km/h (0 Bft) 0 min
12.09.2017 02:14 22,0 C 12,2 C 14,0 C 89 % 0 % 1010 hPa 0,0 l/m 0,0 km/h (0 Bft) 0 min
12.09.2017 02:17 21,9 C 12,1 C 14,0 C 89 % 0 % 1010 hPa 0,0 l/m 0,1 km/h (0 Bft) 0 min
12.09.2017 02:21 22,0 C 12,1 C 14,0 C 89 % 0 % 1010 hPa 0,0 l/m 0,2 km/h (0 Bft) 0 min
12.09.2017 02:24 22,0 C 12,0 C 14,0 C 89 % 0 % 1010 hPa 0,0 l/m 0,1 km/h (0 Bft) 0 min
12.09.2017 02:27 22,0 C 12,0 C 14,0 C 89 % 0 % 1010 hPa 0,0 l/m 0,0 km/h (0 Bft) 0 min
12.09.2017 02:30 22,0 C 12,0 C 13,9 C 89 % 0 % 1010 hPa 0,0 l/m 0,6 km/h (0 Bft) 0 min
12.09.2017 02:33 21,9 C 12,0 C 13,9 C 89 % 0 % 1010 hPa 0,0 l/m 0,1 km/h (0 Bft) 0 min
12.09.2017 02:36 21,9 C 12,0 C 13,9 C 89 % 0 % 1010 hPa 0,0 l/m 0,0 km/h (0 Bft) 0 min
12.09.2017 02:39 21,9 C 12,0 C 13,9 C 89 % 0 % 1010 hPa 0,0 l/m 0,0 km/h (0 Bft) 0 min
12.09.2017 02:41 21,9 C 11,9 C 13,9 C 88 % 0 % 1010 hPa 0,0 l/m 0,0 km/h (0 Bft) 0 min
12.09.2017 02:44 21,9 C 11,9 C 13,9 C 89 % 0 % 1010 hPa 0,0 l/m 0,0 km/h (0 Bft) 0 min
12.09.2017 02:47 21,9 C 11,9 C 13,9 C 88 % 0 % 1010 hPa 0,0 l/m 0,3 km/h (0 Bft) 0 min
12.09.2017 02:51 21,9 C 12,0 C 13,9 C 89 % 0 % 1010 hPa 0,0 l/m 0,0 km/h (0 Bft) 0 min
12.09.2017 02:54 21,9 C 11,9 C 13,9 C 89 % 0 % 1010 hPa 0,0 l/m 0,0 km/h (0 Bft) 0 min
12.09.2017 02:57 21,9 C 12,0 C 13,9 C 89 % 0 % 1010 hPa 0,0 l/m 0,0 km/h (0 Bft) 0 min
12.09.2017 03:00 21,9 C 12,0 C 13,9 C 90 % 0 % 1010 hPa 0,0 l/m 0,0 km/h (0 Bft) 0 min
12.09.2017 03:02 21,9 C 12,0 C 13,9 C 90 % 0 % 1010 hPa 0,0 l/m 0,0 km/h (0 Bft) 0 min
12.09.2017 03:06 21,9 C 12,0 C 13,9 C 90 % 0 % 1010 hPa 0,0 l/m 0,0 km/h (0 Bft) 0 min
12.09.2017 03:09 21,9 C 12,0 C 13,9 C 90 % 0 % 1010 hPa 0,0 l/m 0,0 km/h (0 Bft) 0 min
12.09.2017 03:12 21,9 C 12,0 C 13,9 C 90 % 0 % 1010 hPa 0,0 l/m 0,0 km/h (0 Bft) 0 min
12.09.2017 03:15 21,9 C 12,0 C 13,9 C 90 % 0 % 1010 hPa 0,0 l/m 0,0 km/h (0 Bft) 0 min
12.09.2017 03:18 21,9 C 12,0 C 13,9 C 90 % 0 % 1010 hPa 0,0 l/m 0,0 km/h (0 Bft) 0 min
12.09.2017 03:21 21,9 C 12,0 C 13,9 C 90 % 0 % 1010 hPa 0,0 l/m 0,0 km/h (0 Bft) 0 min
12.09.2017 03:24 21,9 C 12,0 C 13,9 C 90 % 0 % 1010 hPa 0,0 l/m 0,0 km/h (0 Bft) 0 min
12.09.2017 03:27 21,9 C 12,0 C 13,9 C 90 % 0 % 1010 hPa 0,0 l/m 0,0 km/h (0 Bft) 0 min
12.09.2017 03:29 21,9 C 12,0 C 13,9 C 90 % 0 % 1010 hPa 0,0 l/m 0,0 km/h (0 Bft) 0 min
12.09.2017 03:32 21,9 C 12,0 C 13,9 C 90 % 0 % 1010 hPa 0,0 l/m 0,0 km/h (0 Bft) 0 min
12.09.2017 03:36 21,9 C 12,0 C 13,8 C 90 % 0 % 1010 hPa 0,0 l/m 0,0 km/h (0 Bft) 0 min
12.09.2017 03:39 21,9 C 12,0 C 13,9 C 90 % 0 % 1010 hPa 0,0 l/m 0,0 km/h (0 Bft) 0 min
12.09.2017 03:42 21,9 C 12,0 C 13,9 C 90 % 0 % 1010 hPa 0,0 l/m 0,0 km/h (0 Bft) 0 min
12.09.2017 03:45 21,9 C 12,0 C 13,9 C 90 % 0 % 1010 hPa 0,0 l/m 0,0 km/h (0 Bft) 0 min
12.09.2017 03:47 21,9 C 12,0 C 13,9 C 90 % 0 % 1010 hPa 0,0 l/m 0,0 km/h (0 Bft) 0 min
12.09.2017 03:51 21,9 C 12,0 C 13,9 C 90 % 0 % 1010 hPa 0,0 l/m 0,0 km/h (0 Bft) 0 min
12.09.2017 03:54 21,9 C 12,0 C 13,8 C 90 % 0 % 1010 hPa 0,0 l/m 0,0 km/h (0 Bft) 0 min
12.09.2017 03:57 21,9 C 11,9 C 13,8 C 90 % 0 % 1010 hPa 0,0 l/m 0,0 km/h (0 Bft) 0 min
12.09.2017 04:00 21,9 C 11,9 C 13,8 C 90 % 0 % 1010 hPa 0,0 l/m 0,0 km/h (0 Bft) 0 min
12.09.2017 04:02 21,9 C 11,9 C 13,8 C 90 % 0 % 1010 hPa 0,0 l/m 0,0 km/h (0 Bft) 0 min
12.09.2017 04:06 21,9 C 12,0 C 13,8 C 90 % 0 % 1010 hPa 0,0 l/m 0,0 km/h (0 Bft) 0 min
12.09.2017 04:09 21,9 C 11,9 C 13,8 C 90 % 0 % 1010 hPa 0,0 l/m 0,0 km/h (0 Bft) 0 min
12.09.2017 04:12 21,9 C 11,9 C 13,6 C 90 % 0 % 1010 hPa 0,0 l/m 0,0 km/h (0 Bft) 0 min
12.09.2017 04:15 21,9 C 11,7 C 13,8 C 90 % 0 % 1010 hPa 0,0 l/m 0,0 km/h (0 Bft) 0 min
12.09.2017 04:17 21,9 C 11,8 C 13,8 C 90 % 0 % 1010 hPa 0,0 l/m 0,0 km/h (0 Bft) 0 min
12.09.2017 04:21 21,9 C 11,8 C 13,7 C 90 % 0 % 1010 hPa 0,0 l/m 0,0 km/h (0 Bft) 0 min
12.09.2017 04:24 21,9 C 11,8 C 13,6 C 90 % 0 % 1010 hPa 0,0 l/m 0,0 km/h (0 Bft) 0 min
12.09.2017 04:26 21,9 C 11,7 C 13,7 C 90 % 0 % 1010 hPa 0,0 l/m 0,0 km/h (0 Bft) 0 min
12.09.2017 04:29 21,9 C 11,6 C 13,6 C 90 % 0 % 1010 hPa 0,0 l/m 0,2 km/h (0 Bft) 0 min
12.09.2017 04:32 21,9 C 11,6 C 13,5 C 90 % 0 % 1010 hPa 0,0 l/m 0,0 km/h (0 Bft) 0 min
12.09.2017 04:36 21,9 C 11,6 C 13,6 C 90 % 0 % 1010 hPa 0,0 l/m 0,0 km/h (0 Bft) 0 min
12.09.2017 04:39 21,9 C 11,6 C 13,6 C 90 % 0 % 1010 hPa 0,0 l/m 0,0 km/h (0 Bft) 0 min
12.09.2017 04:42 21,9 C 11,5 C 13,6 C 90 % 0 % 1010 hPa 0,0 l/m 0,0 km/h (0 Bft) 0 min
12.09.2017 04:44 21,8 C 11,5 C 13,6 C 89 % 0 % 1010 hPa 0,0 l/m 0,0 km/h (0 Bft) 0 min
12.09.2017 04:47 21,9 C 11,5 C 13,6 C 89 % 0 % 1010 hPa 0,0 l/m 0,0 km/h (0 Bft) 0 min
12.09.2017 04:51 21,9 C 11,5 C 13,5 C 89 % 0 % 1010 hPa 0,0 l/m 0,0 km/h (0 Bft) 0 min
12.09.2017 04:54 21,9 C 11,5 C 13,5 C 89 % 0 % 1010 hPa 0,0 l/m 0,0 km/h (0 Bft) 0 min
12.09.2017 04:57 21,8 C 11,5 C 13,6 C 89 % 0 % 1010 hPa 0,0 l/m 0,0 km/h (0 Bft) 0 min
12.09.2017 04:59 21,9 C 11,5 C 13,6 C 89 % 0 % 1010 hPa 0,0 l/m 0,0 km/h (0 Bft) 0 min
12.09.2017 05:02 21,9 C 11,5 C 13,6 C 89 % 0 % 1010 hPa 0,0 l/m 0,0 km/h (0 Bft) 0 min
12.09.2017 05:06 21,9 C 11,5 C 13,6 C 89 % 0 % 1010 hPa 0,0 l/m 0,6 km/h (0 Bft) 0 min
12.09.2017 05:09 21,8 C 11,5 C 13,5 C 89 % 0 % 1010 hPa 0,0 l/m 0,6 km/h (0 Bft) 0 min
12.09.2017 05:12 21,8 C 11,5 C 13,6 C 89 % 0 % 1010 hPa 0,0 l/m 0,2 km/h (0 Bft) 0 min
12.09.2017 05:15 21,8 C 11,5 C 13,6 C 89 % 0 % 1010 hPa 0,0 l/m 0,0 km/h (0 Bft) 0 min
12.09.2017 05:18 21,8 C 11,5 C 13,6 C 89 % 0 % 1010 hPa 0,0 l/m 0,0 km/h (0 Bft) 0 min
12.09.2017 05:21 21,9 C 11,6 C 13,6 C 90 % 0 % 1010 hPa 0,0 l/m 0,0 km/h (0 Bft) 0 min
12.09.2017 05:24 21,9 C 11,6 C 13,5 C 90 % 0 % 1010 hPa 0,0 l/m 0,0 km/h (0 Bft) 0 min
12.09.2017 05:27 21,8 C 11,5 C 13,6 C 90 % 0 % 1010 hPa 0,0 l/m 0,0 km/h (0 Bft) 0 min
12.09.2017 05:30 21,8 C 11,5 C 13,6 C 90 % 0 % 1010 hPa 0,0 l/m 0,0 km/h (0 Bft) 0 min
12.09.2017 05:33 21,8 C 11,6 C 13,5 C 90 % 0 % 1010 hPa 0,0 l/m 0,0 km/h (0 Bft) 0 min
12.09.2017 05:36 21,8 C 11,5 C 13,6 C 90 % 0 % 1010 hPa 0,0 l/m 0,0 km/h (0 Bft) 0 min
12.09.2017 05:39 21,8 C 11,5 C 13,5 C 90 % 0 % 1010 hPa 0,0 l/m 0,0 km/h (0 Bft) 0 min
12.09.2017 05:42 21,8 C 11,5 C 13,5 C 90 % 0 % 1010 hPa 0,0 l/m 0,0 km/h (0 Bft) 0 min
12.09.2017 05:45 21,8 C 11,5 C 13,4 C 90 % 0 % 1010 hPa 0,0 l/m 0,0 km/h (0 Bft) 0 min
12.09.2017 05:47 21,8 C 11,5 C 13,5 C 90 % 0 % 1010 hPa 0,0 l/m 0,0 km/h (0 Bft) 0 min
12.09.2017 05:51 21,8 C 11,4 C 13,5 C 91 % 0 % 1010 hPa 0,0 l/m 0,0 km/h (0 Bft) 0 min
12.09.2017 05:54 21,8 C 11,4 C 13,5 C 91 % 0 % 1010 hPa 0,0 l/m 0,0 km/h (0 Bft) 0 min
12.09.2017 05:57 21,8 C 11,4 C 13,5 C 91 % 0 % 1010 hPa 0,0 l/m 0,0 km/h (0 Bft) 0 min
12.09.2017 06:00 21,8 C 11,3 C 13,5 C 91 % 0 % 1010 hPa 0,0 l/m 0,0 km/h (0 Bft) 0 min
12.09.2017 06:02 21,8 C 11,3 C 13,5 C 91 % 0 % 1010 hPa 0,0 l/m 0,0 km/h (0 Bft) 0 min
12.09.2017 06:06 21,8 C 11,3 C 13,5 C 91 % 0 % 1010 hPa 0,0 l/m 0,0 km/h (0 Bft) 0 min
12.09.2017 06:09 21,8 C 11,3 C 13,4 C 91 % 0 % 1010 hPa 0,0 l/m 0,0 km/h (0 Bft) 0 min
12.09.2017 06:12 21,8 C 11,3 C 13,4 C 91 % 0 % 1010 hPa 0,0 l/m 0,0 km/h (0 Bft) 0 min
12.09.2017 06:15 21,8 C 11,2 C 13,3 C 91 % 0 % 1010 hPa 0,0 l/m 0,0 km/h (0 Bft) 0 min
12.09.2017 06:18 21,8 C 11,2 C 13,3 C 91 % 0 % 1010 hPa 0,0 l/m 0,0 km/h (0 Bft) 0 min
12.09.2017 06:21 21,8 C 11,1 C 13,3 C 91 % 0 % 1010 hPa 0,0 l/m 0,0 km/h (0 Bft) 0 min
12.09.2017 06:24 21,8 C 11,1 C 13,3 C 91 % 0 % 1010 hPa 0,0 l/m 0,0 km/h (0 Bft) 0 min
12.09.2017 06:27 21,8 C 11,0 C 13,2 C 91 % 0 % 1010 hPa 0,0 l/m 0,0 km/h (0 Bft) 0 min
12.09.2017 06:30 21,8 C 10,9 C 13,2 C 90 % 0 % 1010 hPa 0,0 l/m 0,0 km/h (0 Bft) 0 min
12.09.2017 06:32 21,8 C 10,9 C 13,2 C 90 % 0 % 1010 hPa 0,0 l/m 0,0 km/h (0 Bft) 0 min
12.09.2017 06:36 21,8 C 10,8 C 13,3 C 90 % 0 % 1010 hPa 0,0 l/m 0,0 km/h (0 Bft) 0 min
12.09.2017 06:39 21,8 C 10,8 C 13,3 C 90 % 0 % 1010 hPa 0,0 l/m 0,0 km/h (0 Bft) 0 min
12.09.2017 06:42 21,8 C 10,8 C 13,2 C 90 % 0 % 1010 hPa 0,0 l/m 0,0 km/h (0 Bft) 0 min
12.09.2017 06:44 21,8 C 10,8 C 13,1 C 90 % 0 % 1010 hPa 0,0 l/m 0,0 km/h (0 Bft) 0 min
12.09.2017 06:47 21,8 C 10,7 C 13,1 C 90 % 0 % 1010 hPa 0,0 l/m 0,0 km/h (0 Bft) 0 min
12.09.2017 06:51 21,8 C 10,7 C 13,2 C 90 % 0 % 1010 hPa 0,0 l/m 0,0 km/h (0 Bft) 0 min
12.09.2017 06:54 21,8 C 10,7 C 13,1 C 90 % 0 % 1010 hPa 0,0 l/m 0,0 km/h (0 Bft) 0 min
12.09.2017 06:57 21,8 C 10,7 C 13,1 C 90 % 0 % 1010 hPa 0,0 l/m 0,0 km/h (0 Bft) 0 min
12.09.2017 07:00 21,8 C 10,8 C 13,1 C 90 % 0 % 1010 hPa 0,0 l/m 0,0 km/h (0 Bft) 0 min
12.09.2017 07:03 21,8 C 10,8 C 13,1 C 90 % 0 % 1010 hPa 0,0 l/m 0,0 km/h (0 Bft) 0 min
12.09.2017 07:06 21,9 C 10,8 C 13,2 C 91 % 0 % 1010 hPa 0,0 l/m 0,0 km/h (0 Bft) 0 min
12.09.2017 07:09 21,8 C 10,8 C 13,1 C 91 % 0 % 1010 hPa 0,0 l/m 0,0 km/h (0 Bft) 0 min
12.09.2017 07:12 21,8 C 10,8 C 13,2 C 91 % 0 % 1010 hPa 0,0 l/m 0,0 km/h (0 Bft) 0 min
12.09.2017 07:14 21,8 C 10,8 C 13,0 C 91 % 0 % 1010 hPa 0,0 l/m 0,0 km/h (0 Bft) 0 min
12.09.2017 07:17 21,8 C 10,7 C 13,1 C 91 % 0 % 1010 hPa 0,0 l/m 0,0 km/h (0 Bft) 0 min
12.09.2017 07:21 21,8 C 10,8 C 13,1 C 91 % 0 % 1010 hPa 0,0 l/m 0,0 km/h (0 Bft) 0 min
12.09.2017 07:24 21,8 C 10,8 C 13,1 C 91 % 0 % 1010 hPa 0,0 l/m 0,0 km/h (0 Bft) 0 min
12.09.2017 07:27 21,8 C 10,9 C 13,0 C 91 % 0 % 1010 hPa 0,0 l/m 0,0 km/h (0 Bft) 0 min
12.09.2017 07:30 21,8 C 10,8 C 13,1 C 91 % 0 % 1010 hPa 0,0 l/m 0,0 km/h (0 Bft) 0 min
12.09.2017 07:33 21,8 C 10,9 C 13,1 C 91 % 0 % 1010 hPa 0,0 l/m 0,0 km/h (0 Bft) 0 min
12.09.2017 07:36 21,8 C 10,9 C 13,1 C 91 % 0 % 1010 hPa 0,0 l/m 0,1 km/h (0 Bft) 0 min
12.09.2017 07:39 21,8 C 10,9 C 13,1 C 91 % 0 % 1010 hPa 0,0 l/m 0,0 km/h (0 Bft) 0 min
12.09.2017 07:42 21,8 C 11,0 C 13,1 C 91 % 0 % 1010 hPa 0,0 l/m 0,0 km/h (0 Bft) 0 min
12.09.2017 07:44 21,8 C 11,0 C 13,1 C 91 % 0 % 1010 hPa 0,0 l/m 0,0 km/h (0 Bft) 0 min
12.09.2017 07:47 21,8 C 11,0 C 13,2 C 91 % 0 % 1010 hPa 0,0 l/m 0,0 km/h (0 Bft) 0 min
12.09.2017 07:51 21,8 C 11,0 C 13,1 C 91 % 0 % 1010 hPa 0,0 l/m 0,0 km/h (0 Bft) 0 min
12.09.2017 07:54 21,9 C 11,0 C 13,0 C 91 % 0 % 1010 hPa 0,0 l/m 0,0 km/h (0 Bft) 0 min
12.09.2017 07:57 21,8 C 11,1 C 13,1 C 91 % 0 % 1010 hPa 0,0 l/m 0,0 km/h (0 Bft) 0 min
12.09.2017 08:00 21,9 C 11,2 C 13,1 C 91 % 0 % 1010 hPa 0,0 l/m 0,0 km/h (0 Bft) 0 min
12.09.2017 08:02 21,9 C 11,2 C 13,1 C 91 % 0 % 1010 hPa 0,0 l/m 0,0 km/h (0 Bft) 0 min
12.09.2017 08:06 21,8 C 11,1 C 13,0 C 91 % 0 % 1010 hPa 0,0 l/m 0,0 km/h (0 Bft) 0 min
12.09.2017 08:09 21,9 C 11,1 C 13,0 C 91 % 0 % 1010 hPa 0,0 l/m 0,0 km/h (0 Bft) 0 min
12.09.2017 08:12 21,9 C 11,2 C 13,1 C 91 % 0 % 1010 hPa 0,0 l/m 0,0 km/h (0 Bft) 0 min
12.09.2017 08:15 21,9 C 11,3 C 13,1 C 91 % 0 % 1010 hPa 0,0 l/m 0,0 km/h (0 Bft) 0 min
12.09.2017 08:18 21,9 C 11,3 C 13,2 C 91 % 0 % 1010 hPa 0,0 l/m 0,0 km/h (0 Bft) 0 min
12.09.2017 08:21 21,9 C 11,3 C 13,1 C 91 % 0 % 1010 hPa 0,0 l/m 0,0 km/h (0 Bft) 0 min
12.09.2017 08:24 21,9 C 11,3 C 13,2 C 91 % 0 % 1010 hPa 0,0 l/m 0,7 km/h (0 Bft) 0 min
12.09.2017 08:27 21,7 C 11,4 C 13,2 C 91 % 0 % 1010 hPa 0,0 l/m 0,1 km/h (0 Bft) 0 min
12.09.2017 08:30 21,6 C 11,4 C 13,2 C 91 % 0 % 1010 hPa 0,0 l/m 0,2 km/h (0 Bft) 0 min
12.09.2017 08:33 21,4 C 11,4 C 13,2 C 91 % 0 % 1010 hPa 0,0 l/m 0,2 km/h (0 Bft) 0 min
12.09.2017 08:36 21,4 C 11,4 C 13,2 C 91 % 0 % 1010 hPa 0,0 l/m 3,0 km/h (1 Bft) 0 min
12.09.2017 08:39 21,4 C 11,5 C 13,3 C 91 % 0 % 1010 hPa 0,0 l/m 1,2 km/h (1 Bft) 0 min
12.09.2017 08:42 21,4 C 11,6 C 13,3 C 91 % 0 % 1010 hPa 0,0 l/m 1,8 km/h (1 Bft) 0 min
12.09.2017 08:44 21,5 C 11,6 C 13,3 C 91 % 0 % 1011 hPa 0,0 l/m 1,8 km/h (1 Bft) 0 min
12.09.2017 08:47 21,6 C 11,6 C 13,3 C 91 % 0 % 1011 hPa 0,0 l/m 0,0 km/h (0 Bft) 0 min
12.09.2017 08:51 21,6 C 11,6 C 13,3 C 91 % 0 % 1011 hPa 0,0 l/m 0,0 km/h (0 Bft) 0 min
12.09.2017 08:54 21,6 C 11,6 C 13,3 C 91 % 0 % 1011 hPa 0,0 l/m 0,0 km/h (0 Bft) 0 min
12.09.2017 08:57 21,6 C 11,8 C 13,3 C 91 % 0 % 1011 hPa 0,0 l/m 0,0 km/h (0 Bft) 0 min
12.09.2017 09:00 21,6 C 11,8 C 13,4 C 91 % 0 % 1011 hPa 0,0 l/m 0,0 km/h (0 Bft) 0 min
12.09.2017 09:03 21,6 C 11,8 C 13,4 C 91 % 0 % 1011 hPa 0,0 l/m 0,0 km/h (0 Bft) 0 min
12.09.2017 09:06 21,6 C 11,8 C 13,3 C 91 % 0 % 1011 hPa 0,0 l/m 0,0 km/h (0 Bft) 0 min
12.09.2017 09:08 21,7 C 11,7 C 13,3 C 91 % 0 % 1011 hPa 0,0 l/m 0,0 km/h (0 Bft) 0 min
12.09.2017 09:11 21,7 C 11,7 C 13,4 C 90 % 0 % 1011 hPa 0,0 l/m 0,0 km/h (0 Bft) 0 min
12.09.2017 09:14 21,7 C 11,9 C 13,4 C 90 % 0 % 1011 hPa 0,0 l/m 0,0 km/h (0 Bft) 0 min
12.09.2017 09:17 21,7 C 12,0 C 13,4 C 90 % 0 % 1011 hPa 0,0 l/m 0,5 km/h (0 Bft) 0 min
12.09.2017 09:21 21,6 C 12,0 C 13,4 C 91 % 0 % 1011 hPa 0,0 l/m 0,1 km/h (0 Bft) 0 min
12.09.2017 09:24 21,7 C 12,0 C 13,5 C 90 % 0 % 1011 hPa 0,0 l/m 0,3 km/h (0 Bft) 0 min
12.09.2017 09:27 21,7 C 12,0 C 13,4 C 90 % 0 % 1011 hPa 0,0 l/m 0,0 km/h (0 Bft) 0 min
12.09.2017 09:30 21,7 C 12,1 C 13,4 C 90 % 0 % 1011 hPa 0,0 l/m 0,0 km/h (0 Bft) 0 min
12.09.2017 09:33 21,7 C 12,1 C 13,4 C 90 % 0 % 1011 hPa 0,0 l/m 0,0 km/h (0 Bft) 0 min
12.09.2017 09:36 21,7 C 12,0 C 13,5 C 90 % 0 % 1011 hPa 0,3 l/m 0,0 km/h (0 Bft) 0 min
12.09.2017 09:39 21,7 C 12,1 C 13,5 C 90 % 0 % 1011 hPa 0,0 l/m 0,0 km/h (0 Bft) 0 min
12.09.2017 09:42 21,7 C 12,0 C 13,5 C 90 % 0 % 1011 hPa 0,0 l/m 0,0 km/h (0 Bft) 0 min
12.09.2017 09:45 21,7 C 12,2 C 13,5 C 90 % 0 % 1011 hPa 0,3 l/m 0,1 km/h (0 Bft) 0 min
12.09.2017 09:47 21,8 C 12,2 C 13,5 C 90 % 0 % 1011 hPa 0,0 l/m 0,3 km/h (0 Bft) 0 min
12.09.2017 09:51 21,7 C 12,2 C 13,5 C 90 % 0 % 1011 hPa 0,0 l/m 0,1 km/h (0 Bft) 0 min
12.09.2017 09:54 21,7 C 12,2 C 13,5 C 90 % 0 % 1011 hPa 0,0 l/m 0,1 km/h (0 Bft) 0 min
12.09.2017 09:57 21,7 C 12,2 C 13,5 C 90 % 0 % 1011 hPa 0,0 l/m 0,0 km/h (0 Bft) 0 min
12.09.2017 10:00 21,7 C 12,3 C 13,5 C 90 % 0 % 1011 hPa 0,0 l/m 0,0 km/h (0 Bft) 0 min
12.09.2017 10:02 21,7 C 12,2 C 13,6 C 90 % 0 % 1011 hPa 0,0 l/m 0,0 km/h (0 Bft) 0 min
12.09.2017 10:06 21,7 C 12,3 C 13,5 C 90 % 0 % 1011 hPa 0,0 l/m 0,1 km/h (0 Bft) 0 min
12.09.2017 10:09 21,7 C 12,2 C 13,6 C 90 % 0 % 1011 hPa 0,0 l/m 0,0 km/h (0 Bft) 0 min
12.09.2017 10:11 21,7 C 12,4 C 13,6 C 90 % 0 % 1011 hPa 0,0 l/m 0,1 km/h (0 Bft) 0 min
12.09.2017 10:14 21,7 C 12,4 C 13,7 C 90 % 0 % 1011 hPa 0,0 l/m 0,7 km/h (0 Bft) 0 min
12.09.2017 10:17 21,8 C 12,5 C 13,7 C 89 % 0 % 1011 hPa 0,0 l/m 0,0 km/h (0 Bft) 0 min
12.09.2017 10:21 21,7 C 12,5 C 13,7 C 89 % 0 % 1011 hPa 0,0 l/m 0,0 km/h (0 Bft) 0 min
12.09.2017 10:24 21,7 C 12,8 C 13,8 C 88 % 0 % 1011 hPa 0,0 l/m 0,0 km/h (0 Bft) 0 min
12.09.2017 10:27 21,7 C 12,8 C 13,8 C 87 % 0 % 1011 hPa 0,0 l/m 0,0 km/h (0 Bft) 0 min
12.09.2017 10:30 21,7 C 12,9 C 13,8 C 84 % 0 % 1011 hPa 0,0 l/m 0,0 km/h (0 Bft) 0 min
12.09.2017 10:33 21,8 C 12,9 C 13,8 C 84 % 0 % 1011 hPa 0,0 l/m 3,1 km/h (1 Bft) 0 min
12.09.2017 10:36 21,8 C 13,1 C 13,9 C 84 % 0 % 1011 hPa 0,0 l/m 0,4 km/h (0 Bft) 0 min
12.09.2017 10:39 21,8 C 13,1 C 13,9 C 81 % 0 % 1012 hPa 0,0 l/m 0,1 km/h (0 Bft) 0 min
12.09.2017 10:41 21,7 C 13,2 C 13,8 C 85 % 0 % 1012 hPa 0,0 l/m 0,0 km/h (0 Bft) 0 min
12.09.2017 10:44 21,7 C 13,2 C 13,8 C 84 % 0 % 1012 hPa 0,0 l/m 0,4 km/h (0 Bft) 0 min
12.09.2017 10:47 21,7 C 13,2 C 13,9 C 85 % 0 % 1012 hPa 0,0 l/m 0,3 km/h (0 Bft) 0 min
12.09.2017 10:51 21,7 C 13,2 C 13,9 C 84 % 0 % 1012 hPa 0,0 l/m 0,3 km/h (0 Bft) 0 min
12.09.2017 10:54 21,7 C 13,2 C 14,0 C 84 % 0 % 1012 hPa 0,0 l/m 0,0 km/h (0 Bft) 0 min
12.09.2017 10:57 21,8 C 13,2 C 14,0 C 83 % 0 % 1012 hPa 0,0 l/m 0,0 km/h (0 Bft) 0 min
12.09.2017 11:00 21,8 C 13,2 C 14,0 C 83 % 0 % 1012 hPa 0,0 l/m 0,0 km/h (0 Bft) 0 min
12.09.2017 11:03 21,8 C 13,3 C 14,0 C 83 % 0 % 1012 hPa 0,0 l/m 0,2 km/h (0 Bft) 0 min
12.09.2017 11:06 21,7 C 13,3 C 14,0 C 83 % 0 % 1012 hPa 0,0 l/m 0,0 km/h (0 Bft) 0 min
12.09.2017 11:09 21,7 C 13,3 C 14,0 C 82 % 0 % 1012 hPa 0,0 l/m 0,3 km/h (0 Bft) 0 min
12.09.2017 11:12 21,8 C 13,4 C 14,1 C 83 % 0 % 1012 hPa 0,0 l/m 0,0 km/h (0 Bft) 0 min
12.09.2017 11:14 21,8 C 13,3 C 14,0 C 83 % 0 % 1012 hPa 0,0 l/m 0,3 km/h (0 Bft) 0 min
12.09.2017 11:17 21,8 C 13,4 C 14,0 C 82 % 0 % 1012 hPa 0,0 l/m 3,4 km/h (1 Bft) 0 min
12.09.2017 11:21 21,7 C 13,5 C 14,1 C 82 % 0 % 1012 hPa 0,0 l/m 3,0 km/h (1 Bft) 0 min
12.09.2017 11:24 21,8 C 13,4 C 14,1 C 84 % 0 % 1012 hPa 0,0 l/m 0,0 km/h (0 Bft) 0 min
12.09.2017 11:27 21,8 C 13,4 C 14,1 C 84 % 0 % 1012 hPa 0,0 l/m 0,3 km/h (0 Bft) 0 min
12.09.2017 11:30 21,8 C 13,5 C 14,1 C 83 % 0 % 1012 hPa 0,0 l/m 2,4 km/h (1 Bft) 0 min
12.09.2017 11:32 21,8 C 13,5 C 14,1 C 82 % 0 % 1012 hPa 0,0 l/m 0,4 km/h (0 Bft) 0 min
12.09.2017 11:36 21,8 C 13,6 C 14,1 C 84 % 0 % 1012 hPa 0,0 l/m 0,0 km/h (0 Bft) 0 min
12.09.2017 11:39 21,8 C 13,6 C 14,2 C 84 % 0 % 1012 hPa 0,0 l/m 0,1 km/h (0 Bft) 0 min
12.09.2017 11:42 21,8 C 13,7 C 14,2 C 85 % 0 % 1012 hPa 0,0 l/m 0,0 km/h (0 Bft) 0 min
12.09.2017 11:45 21,8 C 13,6 C 14,2 C 82 % 0 % 1012 hPa 0,0 l/m 0,0 km/h (0 Bft) 0 min
12.09.2017 11:48 21,8 C 13,8 C 14,2 C 81 % 0 % 1012 hPa 0,0 l/m 0,5 km/h (0 Bft) 0 min
12.09.2017 11:51 21,8 C 13,8 C 14,2 C 79 % 0 % 1012 hPa 0,0 l/m 1,8 km/h (1 Bft) 0 min
12.09.2017 11:54 21,8 C 13,9 C 14,2 C 79 % 0 % 1012 hPa 0,0 l/m 0,3 km/h (0 Bft) 0 min
12.09.2017 11:57 21,8 C 13,9 C 14,2 C 78 % 0 % 1012 hPa 0,0 l/m 0,1 km/h (0 Bft) 0 min
12.09.2017 11:59 21,8 C 13,8 C 14,2 C 77 % 0 % 1012 hPa 0,0 l/m 0,4 km/h (0 Bft) 0 min
12.09.2017 12:02 21,8 C 13,8 C 14,3 C 77 % 0 % 1012 hPa 0,0 l/m 3,7 km/h (1 Bft) 0 min
12.09.2017 12:06 21,8 C 13,8 C 14,3 C 79 % 0 % 1012 hPa 0,0 l/m 0,1 km/h (0 Bft) 0 min
12.09.2017 12:09 21,8 C 13,7 C 14,3 C 78 % 0 % 1012 hPa 0,0 l/m 1,3 km/h (1 Bft) 0 min
12.09.2017 12:12 21,8 C 13,6 C 14,2 C 78 % 0 % 1012 hPa 0,0 l/m 12,6 km/h (3 Bft) 0 min
12.09.2017 12:15 21,8 C 13,4 C 14,1 C 78 % 0 % 1012 hPa 0,0 l/m 12,0 km/h (2 Bft) 0 min
12.09.2017 12:18 21,8 C 13,3 C 14,1 C 80 % 0 % 1012 hPa 0,3 l/m 7,2 km/h (2 Bft) 0 min
12.09.2017 12:21 21,8 C 13,3 C 14,1 C 80 % 0 % 1012 hPa 0,0 l/m 1,2 km/h (1 Bft) 0 min
12.09.2017 12:24 21,8 C 13,1 C 14,2 C 83 % 0 % 1013 hPa 0,0 l/m 0,6 km/h (0 Bft) 0 min
12.09.2017 12:27 21,8 C 13,0 C 14,2 C 84 % 0 % 1013 hPa 0,0 l/m 0,6 km/h (0 Bft) 0 min
12.09.2017 12:29 21,7 C 13,0 C 14,2 C 83 % 0 % 1013 hPa 0,0 l/m 6,3 km/h (2 Bft) 0 min
12.09.2017 12:32 21,7 C 13,0 C 14,1 C 84 % 0 % 1013 hPa 0,0 l/m 7,2 km/h (2 Bft) 0 min
12.09.2017 12:36 21,7 C 13,0 C 14,2 C 84 % 0 % 1013 hPa 0,0 l/m 7,2 km/h (2 Bft) 0 min
12.09.2017 12:39 21,7 C 13,0 C 14,2 C 84 % 0 % 1013 hPa 0,0 l/m 6,9 km/h (2 Bft) 0 min
12.09.2017 12:42 21,8 C 13,1 C 14,2 C 84 % 0 % 1013 hPa 0,0 l/m 18,7 km/h (3 Bft) 0 min
12.09.2017 12:45 21,8 C 13,0 C 14,1 C 79 % 0 % 1013 hPa 0,0 l/m 22,5 km/h (4 Bft) 0 min
12.09.2017 12:48 21,8 C 13,1 C 14,1 C 78 % 0 % 1013 hPa 0,0 l/m 18,0 km/h (3 Bft) 0 min
12.09.2017 12:51 21,8 C 13,2 C 14,1 C 78 % 0 % 1013 hPa 0,0 l/m 16,1 km/h (3 Bft) 0 min
12.09.2017 12:54 21,8 C 13,2 C 14,1 C 78 % 0 % 1013 hPa 0,0 l/m 9,3 km/h (2 Bft) 0 min
12.09.2017 12:57 21,7 C 13,2 C 14,2 C 78 % 0 % 1013 hPa 0,0 l/m 21,4 km/h (4 Bft) 0 min
12.09.2017 12:59 21,8 C 13,2 C 14,2 C 78 % 0 % 1013 hPa 0,0 l/m 5,3 km/h (1 Bft) 0 min
12.09.2017 13:02 21,8 C 13,2 C 14,2 C 80 % 0 % 1013 hPa 0,0 l/m 7,0 km/h (2 Bft) 0 min
12.09.2017 13:06 21,8 C 13,3 C 14,2 C 81 % 0 % 1013 hPa 0,0 l/m 5,5 km/h (1 Bft) 0 min
12.09.2017 13:09 21,8 C 13,3 C 14,2 C 79 % 0 % 1013 hPa 0,0 l/m 9,0 km/h (2 Bft) 0 min
12.09.2017 13:12 21,8 C 13,2 C 14,1 C 77 % 0 % 1013 hPa 0,0 l/m 9,5 km/h (2 Bft) 0 min
12.09.2017 13:15 21,8 C 13,3 C 14,1 C 77 % 0 % 1013 hPa 0,0 l/m 16,0 km/h (3 Bft) 0 min
12.09.2017 13:17 21,7 C 13,2 C 14,2 C 77 % 0 % 1013 hPa 0,0 l/m 13,5 km/h (3 Bft) 0 min
12.09.2017 13:21 21,8 C 13,2 C 14,2 C 78 % 0 % 1013 hPa 0,0 l/m 15,0 km/h (3 Bft) 0 min
12.09.2017 13:24 21,7 C 13,2 C 14,2 C 78 % 0 % 1013 hPa 0,0 l/m 1,8 km/h (1 Bft) 0 min
12.09.2017 13:27 21,7 C 13,3 C 14,2 C 79 % 0 % 1013 hPa 0,0 l/m 8,3 km/h (2 Bft) 0 min
12.09.2017 13:30 21,7 C 13,3 C 14,2 C 81 % 0 % 1014 hPa 0,0 l/m 8,3 km/h (2 Bft) 0 min
12.09.2017 13:33 21,7 C 13,3 C 14,2 C 80 % 0 % 1014 hPa 0,0 l/m 7,1 km/h (2 Bft) 0 min
12.09.2017 13:36 21,7 C 13,3 C 14,2 C 79 % 0 % 1014 hPa 0,0 l/m 7,1 km/h (2 Bft) 0 min
12.09.2017 13:39 21,8 C 13,3 C 14,2 C 79 % 0 % 1014 hPa 0,0 l/m 7,4 km/h (2 Bft) 0 min
12.09.2017 13:42 21,7 C 13,3 C 14,3 C 81 % 0 % 1014 hPa 0,0 l/m 8,6 km/h (2 Bft) 0 min
12.09.2017 13:45 21,8 C 13,3 C 14,2 C 79 % 0 % 1014 hPa 0,0 l/m 12,8 km/h (3 Bft) 0 min
12.09.2017 13:47 21,7 C 13,3 C 14,2 C 81 % 0 % 1014 hPa 0,0 l/m 7,6 km/h (2 Bft) 0 min
12.09.2017 13:51 21,8 C 13,3 C 14,3 C 81 % 0 % 1014 hPa 0,0 l/m 6,0 km/h (2 Bft) 0 min
12.09.2017 13:54 21,8 C 13,2 C 14,2 C 81 % 0 % 1014 hPa 0,0 l/m 9,0 km/h (2 Bft) 0 min
12.09.2017 13:57 21,8 C 13,2 C 14,3 C 83 % 0 % 1014 hPa 0,0 l/m 5,9 km/h (2 Bft) 0 min
12.09.2017 14:00 21,8 C 13,2 C 14,2 C 83 % 0 % 1014 hPa 0,0 l/m 0,7 km/h (0 Bft) 0 min
12.09.2017 14:02 21,8 C 13,2 C 14,2 C 83 % 0 % 1014 hPa 0,0 l/m 0,7 km/h (0 Bft) 0 min
12.09.2017 14:06 21,7 C 13,0 C 14,1 C 84 % 0 % 1014 hPa 0,3 l/m 7,0 km/h (2 Bft) 0 min
12.09.2017 14:09 21,8 C 13,0 C 14,2 C 84 % 0 % 1014 hPa 0,0 l/m 3,7 km/h (1 Bft) 0 min
12.09.2017 14:12 21,8 C 12,9 C 14,1 C 83 % 0 % 1014 hPa 0,0 l/m 7,5 km/h (2 Bft) 0 min
12.09.2017 14:15 21,8 C 12,9 C 14,2 C 85 % 0 % 1014 hPa 0,0 l/m 0,8 km/h (0 Bft) 0 min
12.09.2017 14:18 21,8 C 12,8 C 14,1 C 85 % 0 % 1014 hPa 0,3 l/m 5,2 km/h (1 Bft) 0 min
12.09.2017 14:21 21,8 C 12,8 C 14,1 C 86 % 0 % 1014 hPa 0,0 l/m 4,3 km/h (1 Bft) 0 min
12.09.2017 14:24 21,8 C 12,8 C 14,1 C 87 % 0 % 1014 hPa 0,3 l/m 3,6 km/h (1 Bft) 0 min
12.09.2017 14:27 21,8 C 12,8 C 14,1 C 87 % 0 % 1014 hPa 0,0 l/m 0,8 km/h (0 Bft) 0 min
12.09.2017 14:29 21,9 C 12,8 C 14,1 C 87 % 0 % 1014 hPa 0,0 l/m 0,7 km/h (0 Bft) 0 min
12.09.2017 14:32 21,9 C 12,8 C 14,2 C 87 % 0 % 1014 hPa 0,0 l/m 0,7 km/h (0 Bft) 0 min
12.09.2017 14:36 21,9 C 12,8 C 14,0 C 87 % 0 % 1014 hPa 0,0 l/m 0,7 km/h (0 Bft) 0 min
12.09.2017 14:39 21,9 C 12,8 C 14,0 C 87 % 0 % 1014 hPa 0,0 l/m 5,9 km/h (2 Bft) 0 min
12.09.2017 14:42 21,9 C 12,8 C 14,1 C 86 % 0 % 1014 hPa 0,0 l/m 3,7 km/h (1 Bft) 0 min
12.09.2017 14:45 21,9 C 13,0 C 14,2 C 87 % 0 % 1014 hPa 0,0 l/m 6,0 km/h (2 Bft) 0 min
12.09.2017 14:48 21,9 C 13,0 C 14,1 C 86 % 0 % 1014 hPa 0,0 l/m 1,7 km/h (1 Bft) 0 min
12.09.2017 14:51 21,9 C 13,0 C 14,2 C 87 % 0 % 1014 hPa 0,0 l/m 5,0 km/h (1 Bft) 0 min
12.09.2017 14:54 21,9 C 13,1 C 14,2 C 86 % 0 % 1014 hPa 0,0 l/m 4,2 km/h (1 Bft) 0 min
12.09.2017 14:57 21,8 C 13,2 C 14,2 C 86 % 0 % 1014 hPa 0,0 l/m 4,8 km/h (1 Bft) 0 min
12.09.2017 15:00 21,8 C 13,2 C 14,2 C 86 % 0 % 1014 hPa 0,0 l/m 8,7 km/h (2 Bft) 0 min
12.09.2017 15:03 21,9 C 13,2 C 14,1 C 84 % 0 % 1014 hPa 0,0 l/m 5,9 km/h (2 Bft) 0 min
12.09.2017 15:06 21,9 C 13,3 C 14,2 C 86 % 0 % 1014 hPa 0,0 l/m 1,7 km/h (1 Bft) 0 min
12.09.2017 15:09 21,9 C 13,3 C 14,2 C 84 % 0 % 1014 hPa 0,0 l/m 5,2 km/h (1 Bft) 0 min
12.09.2017 15:12 21,9 C 13,3 C 14,2 C 83 % 0 % 1014 hPa 0,0 l/m 5,6 km/h (1 Bft) 0 min
12.09.2017 15:14 21,8 C 13,2 C 14,2 C 83 % 0 % 1014 hPa 0,0 l/m 4,8 km/h (1 Bft) 0 min
12.09.2017 15:17 21,9 C 13,2 C 14,2 C 84 % 0 % 1014 hPa 0,0 l/m 0,9 km/h (0 Bft) 0 min
12.09.2017 15:21 21,8 C 13,3 C 14,2 C 86 % 0 % 1014 hPa 0,0 l/m 4,8 km/h (1 Bft) 0 min
12.09.2017 15:24 21,8 C 13,3 C 14,3 C 84 % 0 % 1014 hPa 0,0 l/m 4,1 km/h (1 Bft) 0 min
12.09.2017 15:26 21,8 C 13,3 C 14,2 C 84 % 0 % 1014 hPa 0,0 l/m 4,6 km/h (1 Bft) 0 min
12.09.2017 15:29 21,8 C 13,3 C 14,2 C 83 % 0 % 1014 hPa 0,0 l/m 2,2 km/h (1 Bft) 0 min
12.09.2017 15:32 21,8 C 13,4 C 14,2 C 84 % 0 % 1014 hPa 0,0 l/m 4,3 km/h (1 Bft) 0 min
12.09.2017 15:36 21,8 C 13,4 C 14,3 C 83 % 0 % 1014 hPa 0,0 l/m 6,8 km/h (2 Bft) 0 min
12.09.2017 15:39 21,8 C 13,4 C 14,3 C 80 % 0 % 1014 hPa 0,0 l/m 7,4 km/h (2 Bft) 0 min
12.09.2017 15:42 21,8 C 13,5 C 14,3 C 80 % 0 % 1014 hPa 0,0 l/m 7,2 km/h (2 Bft) 0 min
12.09.2017 15:45 21,8 C 13,5 C 14,3 C 81 % 0 % 1014 hPa 0,0 l/m 4,5 km/h (1 Bft) 0 min
12.09.2017 15:48 21,8 C 13,5 C 14,3 C 80 % 0 % 1014 hPa 0,0 l/m 7,6 km/h (2 Bft) 0 min
12.09.2017 15:51 21,8 C 13,5 C 14,3 C 80 % 0 % 1014 hPa 0,0 l/m 6,7 km/h (2 Bft) 0 min
12.09.2017 15:54 21,8 C 13,6 C 14,3 C 81 % 0 % 1014 hPa 0,0 l/m 2,5 km/h (1 Bft) 0 min
12.09.2017 15:57 21,8 C 13,5 C 14,4 C 82 % 0 % 1014 hPa 0,0 l/m 2,5 km/h (1 Bft) 0 min
12.09.2017 16:00 21,8 C 13,6 C 14,4 C 84 % 0 % 1014 hPa 0,3 l/m 2,5 km/h (1 Bft) 0 min
12.09.2017 16:02 21,8 C 13,5 C 14,4 C 84 % 0 % 1014 hPa 0,0 l/m 0,3 km/h (0 Bft) 0 min
12.09.2017 16:06 21,8 C 13,5 C 14,4 C 83 % 0 % 1014 hPa 0,0 l/m 3,3 km/h (1 Bft) 0 min
12.09.2017 16:09 21,8 C 13,5 C 14,4 C 84 % 0 % 1014 hPa 0,0 l/m 4,6 km/h (1 Bft) 0 min
12.09.2017 16:12 21,8 C 13,6 C 14,5 C 83 % 0 % 1014 hPa 0,0 l/m 0,3 km/h (0 Bft) 0 min
12.09.2017 16:15 21,8 C 13,6 C 14,5 C 83 % 0 % 1014 hPa 0,0 l/m 0,2 km/h (0 Bft) 0 min
12.09.2017 16:18 21,8 C 13,7 C 14,5 C 83 % 0 % 1014 hPa 0,0 l/m 1,3 km/h (1 Bft) 0 min
12.09.2017 16:21 21,8 C 13,8 C 14,5 C 82 % 0 % 1014 hPa 0,0 l/m 6,1 km/h (2 Bft) 0 min
12.09.2017 16:24 21,8 C 13,9 C 14,5 C 82 % 0 % 1014 hPa 0,0 l/m 4,5 km/h (1 Bft) 0 min
12.09.2017 16:27 21,8 C 13,9 C 14,5 C 80 % 0 % 1014 hPa 0,0 l/m 4,5 km/h (1 Bft) 0 min
12.09.2017 16:30 21,8 C 13,9 C 14,5 C 80 % 0 % 1014 hPa 0,0 l/m 4,2 km/h (1 Bft) 0 min
12.09.2017 16:33 21,8 C 14,0 C 14,5 C 79 % 0 % 1014 hPa 0,0 l/m 0,3 km/h (0 Bft) 0 min
12.09.2017 16:36 21,8 C 13,9 C 14,6 C 80 % 0 % 1014 hPa 0,0 l/m 0,3 km/h (0 Bft) 0 min
12.09.2017 16:39 21,8 C 13,9 C 14,5 C 80 % 0 % 1014 hPa 0,0 l/m 3,2 km/h (1 Bft) 0 min
12.09.2017 16:42 21,8 C 13,8 C 14,5 C 80 % 0 % 1014 hPa 0,0 l/m 0,7 km/h (0 Bft) 0 min
12.09.2017 16:45 21,8 C 13,7 C 14,5 C 80 % 0 % 1014 hPa 0,0 l/m 6,9 km/h (2 Bft) 0 min
12.09.2017 16:48 21,8 C 13,6 C 14,5 C 79 % 0 % 1014 hPa 0,0 l/m 6,0 km/h (2 Bft) 0 min
12.09.2017 16:51 21,8 C 13,6 C 14,5 C 79 % 0 % 1014 hPa 0,0 l/m 7,4 km/h (2 Bft) 0 min
12.09.2017 16:54 21,8 C 13,4 C 14,4 C 81 % 0 % 1014 hPa 0,0 l/m 5,7 km/h (1 Bft) 0 min
12.09.2017 16:57 21,8 C 13,4 C 14,5 C 81 % 0 % 1014 hPa 0,0 l/m 8,7 km/h (2 Bft) 0 min
12.09.2017 17:00 21,8 C 13,3 C 14,4 C 83 % 0 % 1014 hPa 0,3 l/m 4,8 km/h (1 Bft) 0 min
12.09.2017 17:03 21,8 C 13,3 C 14,4 C 83 % 0 % 1014 hPa 0,0 l/m 3,7 km/h (1 Bft) 0 min
12.09.2017 17:06 21,8 C 13,3 C 14,5 C 84 % 0 % 1014 hPa 0,0 l/m 3,7 km/h (1 Bft) 0 min
12.09.2017 17:09 21,8 C 13,2 C 14,4 C 84 % 0 % 1014 hPa 0,0 l/m 0,4 km/h (0 Bft) 0 min
12.09.2017 17:12 21,8 C 13,1 C 14,4 C 85 % 0 % 1014 hPa 0,0 l/m 3,8 km/h (1 Bft) 0 min
12.09.2017 17:15 21,8 C 13,1 C 14,3 C 84 % 0 % 1014 hPa 0,3 l/m 4,6 km/h (1 Bft) 0 min
12.09.2017 17:18 21,8 C 13,0 C 14,3 C 83 % 0 % 1014 hPa 0,3 l/m 7,4 km/h (2 Bft) 0 min
12.09.2017 17:21 21,8 C 12,8 C 14,2 C 84 % 0 % 1014 hPa 0,3 l/m 5,5 km/h (1 Bft) 0 min
12.09.2017 17:24 21,8 C 12,7 C 14,2 C 84 % 0 % 1014 hPa 0,0 l/m 5,5 km/h (1 Bft) 0 min
12.09.2017 17:27 21,8 C 12,7 C 14,1 C 85 % 0 % 1014 hPa 0,3 l/m 1,2 km/h (1 Bft) 0 min
12.09.2017 17:30 21,8 C 12,5 C 14,0 C 83 % 0 % 1014 hPa 0,0 l/m 5,8 km/h (2 Bft) 0 min
12.09.2017 17:33 21,8 C 12,5 C 13,9 C 83 % 0 % 1014 hPa 0,0 l/m 5,0 km/h (1 Bft) 0 min
12.09.2017 17:36 21,7 C 12,4 C 14,0 C 85 % 0 % 1014 hPa 0,0 l/m 4,4 km/h (1 Bft) 0 min
12.09.2017 17:39 21,8 C 12,3 C 14,0 C 84 % 0 % 1014 hPa 0,3 l/m 0,5 km/h (0 Bft) 0 min
12.09.2017 17:41 21,8 C 12,3 C 13,9 C 85 % 0 % 1014 hPa 0,0 l/m 0,7 km/h (0 Bft) 0 min
12.09.2017 17:44 21,8 C 12,3 C 14,0 C 85 % 0 % 1014 hPa 0,0 l/m 0,3 km/h (0 Bft) 0 min
12.09.2017 17:47 21,8 C 12,4 C 13,8 C 84 % 0 % 1014 hPa 0,0 l/m 0,9 km/h (0 Bft) 0 min
12.09.2017 17:51 21,8 C 12,4 C 13,8 C 86 % 0 % 1014 hPa 0,0 l/m 0,3 km/h (0 Bft) 0 min
12.09.2017 17:54 21,8 C 12,4 C 13,8 C 84 % 0 % 1014 hPa 0,0 l/m 0,4 km/h (0 Bft) 0 min
12.09.2017 17:57 21,8 C 12,4 C 13,9 C 85 % 0 % 1014 hPa 0,0 l/m 0,2 km/h (0 Bft) 0 min
12.09.2017 18:00 21,8 C 12,4 C 13,9 C 85 % 0 % 1014 hPa 0,0 l/m 0,1 km/h (0 Bft) 0 min
12.09.2017 18:03 21,8 C 12,6 C 13,9 C 86 % 0 % 1014 hPa 0,0 l/m 0,3 km/h (0 Bft) 0 min
12.09.2017 18:06 21,8 C 12,5 C 13,9 C 86 % 0 % 1014 hPa 0,0 l/m 0,3 km/h (0 Bft) 0 min
12.09.2017 18:09 21,8 C 12,6 C 13,9 C 86 % 0 % 1014 hPa 0,0 l/m 1,3 km/h (1 Bft) 0 min
12.09.2017 18:12 21,8 C 12,6 C 13,9 C 84 % 0 % 1014 hPa 0,0 l/m 0,6 km/h (0 Bft) 0 min
12.09.2017 18:14 21,8 C 12,7 C 13,9 C 83 % 0 % 1014 hPa 0,0 l/m 5,9 km/h (2 Bft) 0 min
12.09.2017 18:17 21,8 C 12,7 C 13,9 C 82 % 0 % 1014 hPa 0,0 l/m 10,5 km/h (2 Bft) 0 min
12.09.2017 18:21 21,8 C 12,7 C 13,7 C 82 % 0 % 1014 hPa 0,0 l/m 5,6 km/h (1 Bft) 0 min
12.09.2017 18:24 21,8 C 12,7 C 13,8 C 81 % 0 % 1014 hPa 0,0 l/m 5,6 km/h (1 Bft) 0 min
12.09.2017 18:27 21,8 C 12,6 C 13,8 C 82 % 0 % 1014 hPa 0,0 l/m 5,6 km/h (1 Bft) 0 min
12.09.2017 18:30 21,8 C 12,6 C 13,7 C 84 % 0 % 1014 hPa 0,0 l/m 0,4 km/h (0 Bft) 0 min
12.09.2017 18:33 21,8 C 12,4 C 13,7 C 83 % 0 % 1014 hPa 0,0 l/m 5,9 km/h (2 Bft) 0 min
12.09.2017 18:36 21,8 C 12,4 C 13,7 C 83 % 0 % 1014 hPa 0,0 l/m 0,6 km/h (0 Bft) 0 min
12.09.2017 18:39 21,8 C 12,4 C 13,7 C 84 % 0 % 1014 hPa 0,0 l/m 0,3 km/h (0 Bft) 0 min
12.09.2017 18:42 21,8 C 12,4 C 13,5 C 84 % 0 % 1014 hPa 0,0 l/m 1,6 km/h (1 Bft) 0 min
12.09.2017 18:45 21,8 C 12,4 C 13,6 C 84 % 0 % 1014 hPa 0,0 l/m 1,6 km/h (1 Bft) 0 min
12.09.2017 18:48 21,9 C 12,4 C 13,6 C 84 % 0 % 1014 hPa 0,0 l/m 0,3 km/h (0 Bft) 0 min
12.09.2017 18:51 21,8 C 12,4 C 13,6 C 85 % 0 % 1014 hPa 0,0 l/m 2,0 km/h (1 Bft) 0 min
12.09.2017 18:53 21,8 C 12,3 C 13,6 C 85 % 0 % 1014 hPa 0,0 l/m 4,8 km/h (1 Bft) 0 min
12.09.2017 18:56 21,9 C 12,3 C 13,6 C 85 % 0 % 1014 hPa 0,0 l/m 0,6 km/h (0 Bft) 0 min
12.09.2017 18:59 22,0 C 12,3 C 13,6 C 86 % 0 % 1014 hPa 0,0 l/m 0,9 km/h (0 Bft) 0 min
12.09.2017 19:02 21,9 C 12,2 C 13,6 C 86 % 0 % 1014 hPa 0,0 l/m 4,0 km/h (1 Bft) 0 min
12.09.2017 19:06 21,8 C 12,2 C 13,6 C 86 % 0 % 1014 hPa 0,0 l/m 0,1 km/h (0 Bft) 0 min
12.09.2017 19:09 21,8 C 12,2 C 13,6 C 87 % 0 % 1015 hPa 0,0 l/m 3,7 km/h (1 Bft) 0 min
12.09.2017 19:12 21,8 C 12,2 C 13,6 C 86 % 0 % 1015 hPa 0,0 l/m 3,6 km/h (1 Bft) 0 min
12.09.2017 19:15 21,8 C 12,2 C 13,6 C 87 % 0 % 1015 hPa 0,0 l/m 0,0 km/h (0 Bft) 0 min
12.09.2017 19:18 21,8 C 12,2 C 13,6 C 87 % 0 % 1015 hPa 0,0 l/m 0,0 km/h (0 Bft) 0 min
12.09.2017 19:21 21,8 C 12,2 C 13,6 C 88 % 0 % 1015 hPa 0,0 l/m 0,0 km/h (0 Bft) 0 min
12.09.2017 19:24 21,8 C 12,2 C 13,6 C 88 % 0 % 1015 hPa 0,0 l/m 0,0 km/h (0 Bft) 0 min
12.09.2017 19:27 21,8 C 12,1 C 13,6 C 88 % 0 % 1015 hPa 0,0 l/m 0,0 km/h (0 Bft) 0 min
12.09.2017 19:30 21,8 C 12,1 C 13,6 C 88 % 0 % 1015 hPa 0,0 l/m 0,0 km/h (0 Bft) 0 min
12.09.2017 19:33 21,8 C 12,1 C 13,5 C 88 % 0 % 1015 hPa 0,0 l/m 0,9 km/h (0 Bft) 0 min
12.09.2017 19:36 21,8 C 12,2 C 13,6 C 88 % 0 % 1015 hPa 0,0 l/m 0,2 km/h (0 Bft) 0 min
12.09.2017 19:39 21,8 C 12,2 C 13,5 C 88 % 0 % 1015 hPa 0,0 l/m 0,6 km/h (0 Bft) 0 min
12.09.2017 19:42 21,8 C 12,2 C 13,6 C 88 % 0 % 1015 hPa 0,0 l/m 0,1 km/h (0 Bft) 0 min
12.09.2017 19:44 21,8 C 12,1 C 13,6 C 88 % 0 % 1015 hPa 0,0 l/m 0,1 km/h (0 Bft) 0 min
12.09.2017 19:47 21,8 C 12,2 C 13,6 C 88 % 0 % 1015 hPa 0,0 l/m 0,7 km/h (0 Bft) 0 min
12.09.2017 19:51 21,8 C 12,1 C 13,5 C 88 % 0 % 1015 hPa 0,0 l/m 1,1 km/h (1 Bft) 0 min
12.09.2017 19:54 21,8 C 12,1 C 13,5 C 87 % 0 % 1015 hPa 0,0 l/m 1,3 km/h (1 Bft) 0 min
12.09.2017 19:57 21,8 C 12,1 C 13,5 C 87 % 0 % 1015 hPa 0,0 l/m 0,9 km/h (0 Bft) 0 min
12.09.2017 20:00 21,8 C 12,1 C 13,5 C 87 % 0 % 1015 hPa 0,0 l/m 3,6 km/h (1 Bft) 0 min
12.09.2017 20:03 21,8 C 12,0 C 13,5 C 87 % 0 % 1015 hPa 0,0 l/m 0,3 km/h (0 Bft) 0 min
12.09.2017 20:06 21,8 C 12,0 C 13,5 C 86 % 0 % 1015 hPa 0,0 l/m 1,1 km/h (1 Bft) 0 min
12.09.2017 20:09 21,8 C 12,0 C 13,4 C 86 % 0 % 1015 hPa 0,0 l/m 0,7 km/h (0 Bft) 0 min
12.09.2017 20:12 21,8 C 12,0 C 13,4 C 87 % 0 % 1015 hPa 0,0 l/m 5,2 km/h (1 Bft) 0 min
12.09.2017 20:15 21,8 C 12,0 C 13,4 C 87 % 0 % 1015 hPa 0,0 l/m 5,2 km/h (1 Bft) 0 min
12.09.2017 20:18 21,8 C 11,9 C 13,4 C 86 % 0 % 1016 hPa 0,0 l/m 5,2 km/h (1 Bft) 0 min
12.09.2017 20:21 21,8 C 11,9 C 13,4 C 86 % 0 % 1016 hPa 0,0 l/m 0,8 km/h (0 Bft) 0 min
12.09.2017 20:24 21,8 C 11,8 C 13,4 C 86 % 0 % 1016 hPa 0,0 l/m 0,2 km/h (0 Bft) 0 min
12.09.2017 20:27 21,8 C 11,8 C 13,4 C 85 % 0 % 1016 hPa 0,0 l/m 0,3 km/h (0 Bft) 0 min
12.09.2017 20:30 21,8 C 11,8 C 13,3 C 85 % 0 % 1016 hPa 0,0 l/m 0,7 km/h (0 Bft) 0 min
12.09.2017 20:33 21,8 C 11,8 C 13,4 C 86 % 0 % 1016 hPa 0,0 l/m 1,6 km/h (1 Bft) 0 min
12.09.2017 20:36 21,8 C 11,8 C 13,3 C 85 % 0 % 1016 hPa 0,0 l/m 7,6 km/h (2 Bft) 0 min
12.09.2017 20:39 21,8 C 11,8 C 13,2 C 86 % 0 % 1016 hPa 0,0 l/m 7,6 km/h (2 Bft) 0 min
12.09.2017 20:42 21,8 C 11,8 C 13,3 C 86 % 0 % 1016 hPa 0,0 l/m 1,0 km/h (0 Bft) 0 min
12.09.2017 20:45 21,8 C 11,8 C 13,3 C 86 % 0 % 1016 hPa 0,0 l/m 0,3 km/h (0 Bft) 0 min
12.09.2017 20:47 21,8 C 11,7 C 13,3 C 86 % 0 % 1016 hPa 0,0 l/m 0,3 km/h (0 Bft) 0 min
12.09.2017 20:51 21,8 C 11,7 C 13,2 C 85 % 0 % 1016 hPa 0,0 l/m 0,3 km/h (0 Bft) 0 min
12.09.2017 20:54 21,8 C 11,7 C 13,2 C 85 % 0 % 1016 hPa 0,0 l/m 0,8 km/h (0 Bft) 0 min
12.09.2017 20:57 21,8 C 11,7 C 13,3 C 87 % 0 % 1016 hPa 0,0 l/m 3,9 km/h (1 Bft) 0 min
12.09.2017 20:59 21,8 C 11,7 C 13,2 C 87 % 0 % 1016 hPa 0,0 l/m 0,6 km/h (0 Bft) 0 min
12.09.2017 21:02 21,8 C 11,7 C 13,2 C 86 % 0 % 1016 hPa 0,0 l/m 0,4 km/h (0 Bft) 0 min
12.09.2017 21:06 21,8 C 11,7 C 13,2 C 86 % 0 % 1016 hPa 0,0 l/m 0,3 km/h (0 Bft) 0 min
12.09.2017 21:09 21,8 C 11,7 C 13,2 C 86 % 0 % 1016 hPa 0,0 l/m 5,5 km/h (1 Bft) 0 min
12.09.2017 21:12 21,8 C 11,6 C 13,2 C 86 % 0 % 1016 hPa 0,0 l/m 0,1 km/h (0 Bft) 0 min
12.09.2017 21:15 21,8 C 11,7 C 13,1 C 85 % 0 % 1016 hPa 0,0 l/m 0,0 km/h (0 Bft) 0 min
12.09.2017 21:18 21,8 C 11,7 C 13,2 C 86 % 0 % 1016 hPa 0,0 l/m 0,2 km/h (0 Bft) 0 min
12.09.2017 21:21 21,7 C 11,6 C 13,1 C 85 % 0 % 1016 hPa 0,0 l/m 0,7 km/h (0 Bft) 0 min
12.09.2017 21:24 21,8 C 11,6 C 13,1 C 86 % 0 % 1016 hPa 0,0 l/m 0,1 km/h (0 Bft) 0 min
12.09.2017 21:27 21,8 C 11,6 C 13,1 C 86 % 0 % 1016 hPa 0,0 l/m 0,5 km/h (0 Bft) 0 min
12.09.2017 21:30 21,8 C 11,6 C 13,1 C 84 % 0 % 1016 hPa 0,0 l/m 0,6 km/h (0 Bft) 0 min
12.09.2017 21:32 21,8 C 11,6 C 13,1 C 84 % 0 % 1017 hPa 0,0 l/m 2,7 km/h (1 Bft) 0 min
12.09.2017 21:36 21,8 C 11,6 C 13,1 C 84 % 0 % 1017 hPa 0,0 l/m 1,8 km/h (1 Bft) 0 min
12.09.2017 21:39 21,8 C 11,6 C 13,1 C 84 % 0 % 1017 hPa 0,0 l/m 1,6 km/h (1 Bft) 0 min
12.09.2017 21:42 21,8 C 11,6 C 13,1 C 84 % 0 % 1017 hPa 0,0 l/m 0,3 km/h (0 Bft) 0 min
12.09.2017 21:44 21,8 C 11,5 C 13,1 C 84 % 0 % 1017 hPa 0,0 l/m 0,6 km/h (0 Bft) 0 min
12.09.2017 21:47 21,8 C 11,6 C 13,1 C 84 % 0 % 1017 hPa 0,0 l/m 0,3 km/h (0 Bft) 0 min
12.09.2017 21:51 21,8 C 11,6 C 13,1 C 84 % 0 % 1017 hPa 0,0 l/m 0,1 km/h (0 Bft) 0 min
12.09.2017 21:54 21,8 C 11,6 C 13,0 C 84 % 0 % 1017 hPa 0,0 l/m 0,1 km/h (0 Bft) 0 min
12.09.2017 21:57 21,8 C 11,6 C 13,0 C 83 % 0 % 1017 hPa 0,0 l/m 0,1 km/h (0 Bft) 0 min
12.09.2017 22:00 21,8 C 11,5 C 13,1 C 84 % 0 % 1017 hPa 0,0 l/m 0,0 km/h (0 Bft) 0 min
12.09.2017 22:03 21,8 C 11,5 C 13,1 C 84 % 0 % 1017 hPa 0,0 l/m 0,0 km/h (0 Bft) 0 min
12.09.2017 22:06 21,8 C 11,4 C 13,1 C 84 % 0 % 1017 hPa 0,0 l/m 0,0 km/h (0 Bft) 0 min
12.09.2017 22:09 21,8 C 11,4 C 13,1 C 86 % 0 % 1017 hPa 0,0 l/m 0,0 km/h (0 Bft) 0 min
12.09.2017 22:12 21,8 C 11,4 C 13,1 C 85 % 0 % 1017 hPa 0,0 l/m 0,0 km/h (0 Bft) 0 min
12.09.2017 22:14 21,8 C 11,4 C 13,0 C 85 % 0 % 1017 hPa 0,0 l/m 0,0 km/h (0 Bft) 0 min
12.09.2017 22:17 21,8 C 11,2 C 13,0 C 86 % 0 % 1017 hPa 0,0 l/m 0,4 km/h (0 Bft) 0 min
12.09.2017 22:21 21,7 C 11,2 C 12,9 C 86 % 0 % 1017 hPa 0,0 l/m 0,1 km/h (0 Bft) 0 min
12.09.2017 22:24 21,8 C 11,2 C 12,9 C 85 % 0 % 1017 hPa 0,0 l/m 0,7 km/h (0 Bft) 0 min
12.09.2017 22:27 21,8 C 11,2 C 12,8 C 85 % 0 % 1017 hPa 0,0 l/m 0,6 km/h (0 Bft) 0 min
12.09.2017 22:30 21,8 C 11,2 C 12,9 C 85 % 0 % 1017 hPa 0,0 l/m 0,4 km/h (0 Bft) 0 min
12.09.2017 22:33 21,8 C 11,3 C 12,9 C 84 % 0 % 1017 hPa 0,0 l/m 0,3 km/h (0 Bft) 0 min
12.09.2017 22:36 21,8 C 11,3 C 12,8 C 85 % 0 % 1017 hPa 0,0 l/m 0,7 km/h (0 Bft) 0 min
12.09.2017 22:39 21,7 C 11,3 C 12,9 C 85 % 0 % 1017 hPa 0,0 l/m 0,0 km/h (0 Bft) 0 min
12.09.2017 22:42 21,7 C 11,2 C 13,0 C 86 % 0 % 1018 hPa 0,0 l/m 0,3 km/h (0 Bft) 0 min
12.09.2017 22:45 21,7 C 11,2 C 13,0 C 86 % 0 % 1018 hPa 0,0 l/m 0,0 km/h (0 Bft) 0 min
12.09.2017 22:47 21,8 C 11,2 C 13,0 C 87 % 0 % 1018 hPa 0,0 l/m 0,0 km/h (0 Bft) 0 min
12.09.2017 22:51 21,7 C 11,2 C 13,0 C 86 % 0 % 1018 hPa 0,0 l/m 0,5 km/h (0 Bft) 0 min
12.09.2017 22:54 21,7 C 11,2 C 13,0 C 86 % 0 % 1018 hPa 0,0 l/m 0,5 km/h (0 Bft) 0 min
12.09.2017 22:57 21,7 C 11,2 C 12,9 C 85 % 0 % 1018 hPa 0,0 l/m 0,4 km/h (0 Bft) 0 min
12.09.2017 23:00 21,7 C 11,2 C 12,9 C 85 % 0 % 1018 hPa 0,0 l/m 2,1 km/h (1 Bft) 0 min
12.09.2017 23:03 21,7 C 11,3 C 12,9 C 86 % 0 % 1018 hPa 0,0 l/m 0,3 km/h (0 Bft) 0 min
12.09.2017 23:06 21,7 C 11,3 C 12,9 C 86 % 0 % 1018 hPa 0,0 l/m 0,7 km/h (0 Bft) 0 min
12.09.2017 23:09 21,7 C 11,2 C 12,9 C 86 % 0 % 1018 hPa 0,0 l/m 0,1 km/h (0 Bft) 0 min
12.09.2017 23:12 21,6 C 11,2 C 12,9 C 86 % 0 % 1018 hPa 0,0 l/m 0,4 km/h (0 Bft) 0 min
12.09.2017 23:15 21,7 C 11,3 C 12,9 C 85 % 0 % 1018 hPa 0,0 l/m 0,6 km/h (0 Bft) 0 min
12.09.2017 23:18 21,7 C 11,3 C 12,9 C 84 % 0 % 1018 hPa 0,0 l/m 3,4 km/h (1 Bft) 0 min
12.09.2017 23:21 21,7 C 11,4 C 12,8 C 84 % 0 % 1018 hPa 0,0 l/m 0,6 km/h (0 Bft) 0 min
12.09.2017 23:24 21,6 C 11,4 C 12,9 C 83 % 0 % 1018 hPa 0,0 l/m 5,0 km/h (1 Bft) 0 min
12.09.2017 23:27 21,7 C 11,4 C 12,9 C 83 % 0 % 1018 hPa 0,0 l/m 6,3 km/h (2 Bft) 0 min
12.09.2017 23:30 21,7 C 11,6 C 12,9 C 81 % 0 % 1018 hPa 0,0 l/m 4,6 km/h (1 Bft) 0 min
12.09.2017 23:33 21,6 C 11,6 C 12,9 C 80 % 0 % 1018 hPa 0,0 l/m 6,3 km/h (2 Bft) 0 min
12.09.2017 23:36 21,6 C 11,7 C 12,9 C 81 % 0 % 1018 hPa 0,0 l/m 11,8 km/h (2 Bft) 0 min
12.09.2017 23:39 21,6 C 11,7 C 12,9 C 81 % 0 % 1018 hPa 0,0 l/m 11,8 km/h (2 Bft) 0 min
12.09.2017 23:42 21,6 C 11,8 C 12,9 C 79 % 0 % 1018 hPa 0,0 l/m 8,9 km/h (2 Bft) 0 min
12.09.2017 23:45 21,6 C 11,8 C 12,9 C 80 % 0 % 1018 hPa 0,0 l/m 7,0 km/h (2 Bft) 0 min
12.09.2017 23:48 21,6 C 11,7 C 12,9 C 81 % 0 % 1018 hPa 0,0 l/m 6,1 km/h (2 Bft) 0 min
12.09.2017 23:51 21,6 C 11,7 C 12,9 C 80 % 0 % 1018 hPa 0,0 l/m 0,2 km/h (0 Bft) 0 min
12.09.2017 23:54 21,6 C 11,7 C 12,9 C 79 % 0 % 1018 hPa 0,0 l/m 1,7 km/h (1 Bft) 0 min
12.09.2017 23:57 21,6 C 11,7 C 12,9 C 79 % 0 % 1018 hPa 0,0 l/m 5,0 km/h (1 Bft) 0 min
12.09.2017 23:59 21,6 C 11,7 C 12,9 C 79 % 0 % 1018 hPa 0,0 l/m 0,1 km/h (0 Bft) 0 min
_ Min-Zeit 08:33 06:47 22:27 11:59 - 00:00 - 00:00 -
Minimum _ 21,4 C 10,7 C 12,8 C 77 % - 1010 hPa - 0,0 km/h (0 Bft) -
_ Max-Zeit 00:00 16:33 00:00 05:51 00:00 22:42 09:36 12:45 00:00
Maximum _ 22,0 C 14,0 C 14,7 C 91 % 0 % 1018 hPa 0,3 l/m 22,5 km/h
N (4 Bft)
0 min
Durchschnitt _ 21,8 C 12,3 C 13,7 C 86 % #0 min. 1013 hPa #4,4 l/m 1,9 km/h (1 Bft) #0 min.